RH
96 98 97 95 96 97 99 99 99 98 82 53 55 55 48 44 52 55 53 54 71 82 79 68 65 69 76 56 44 44 43 68 79 70 63 43 36 29 30 25 21 29 22 25 34 41 31
93 95 95 98 96 97 93 99 99 99 96 83 74 54 49 45 46 53 55 59 60 82 83 84 73 78 64 60 40 38 61 75 62 65 55 40 33 25 29 24 26 22 21 24 29 34 30
96 96 96 97 96 99 99 98 96 95 100 97 100 62 50 45 43 46 53 61 66 72 81 71 81 75 58 56 47 43 64 58 56 68 49 38 42 34 29 29 21 22 26 26 28 31 29
96 96 96 97 96 99 99 97 93 90 98 100 97 79 49 46 44 42 48 51 59 69 77 70 76 72 60 52 50 45 55 64 68 64 48 44 46 38 33 26 28 26 23 28 23 27 29
96 96 96 98 98 98 99 97 94 94 98 99 73 53 47 47 45 43 47 48 51 60 68 72 73 68 46 39 39 38 36 52 55 56 50 40 43 35 30 31 28 25 23 22 28 24 26
99 99 100 99 96 99 99 95 94 95 97 94 58 40 43 43 44 44 46 45 54 53 65 71 59 58 36 39 37 36 35 46 46 46 45 39 40 38 29 28 32 24 22 17 21 27 27
71 97 96 99 99 99 98 99 96 99 92 63 34 35 37 40 42 46 54 59 50 51 52 45 42 39 36 36 38 34 35 36 40 46 46 40 48 44 29 23 18 21 16 15 14 27 26
53 71 84 98 99 99 99 100 99 99 59 34 35 38 37 39 43 46 54 40 49 53 42 39 40 38 37 38 39 34 36 37 44 52 38 45 48 33 26 23 26 26 18 17 21 24 27
68 54 61 66 86 90 96 100 100 90 34 38 41 43 44 40 46 54 48 52 60 52 41 34 33 34 34 37 36 36 34 33 40 44 43 42 34 32 32 30 30 25 22 17 18 26 22
69 52 48 76 65 84 84 96 100 95 36 39 45 44 43 42 52 54 46 60 62 51 49 34 33 33 34 34 38 33 33 34 36 43 40 36 36 36 32 28 24 24 18 19 24 24 21
76 61 39 47 52 47 66 79 94 96 40 40 44 43 44 51 57 47 64 65 57 44 76 30 32 31 31 33 35 37 36 34 38 39 39 46 39 37 36 30 30 30 26 22 23 22 20
69 75 60 54 50 46 45 53 84 66 45 41 44 44 46 53 56 55 46 48 53 63 73 48 30 33 33 32 32 34 35 33 36 38 37 43 42 42 38 38 35 31 26 24 26 29 48
71 64 60 55 51 46 42 37 52 92 41 36 43 48 55 54 52 50 47 48 71 52 30 35 40 31 30 33 35 34 37 38 43 68 60 40 40 41 41 36 34 34 32 53 54 59 34
75 66 62 54 50 44 38 34 33 51 48 34 39 46 47 55 61 55 54 42 67 34 35 36 37 31 32 30 30 32 36 33 34 32 40 51 59 41 44 41 39 34 35 50 35 32 25
76 73 61 57 50 41 32 32 28 38 45 35 37 61 53 58 56 64 47 56 44 34 42 41 31 28 30 28 30 28 32 26 27 31 33 34 41 46 46 41 38 33 35 26 31 22 20
74 73 65 65 57 44 29 26 25 34 44 35 50 49 59 45 56 57 40 41 41 42 41 40 33 27 26 26 29 28 27 27 30 29 27 25 33 44 46 41 36 34 28 30 36 32 20
75 75 70 68 62 48 31 26 23 24 50 52 63 44 66 48 48 39 47 40 40 38 38 39 33 32 24 25 25 23 24 35 32 30 27 28 28 48 42 42 30 34 27 27 26 21 21
76 73 71 70 68 55 34 30 23 21 35 58 58 46 61 48 35 30 29 39 46 35 35 36 36 32 28 26 26 26 27 30 37 34 27 26 26 33 33 35 36 34 25 23 25 20 18
78 72 75 72 68 61 37 28 24 21 26 62 40 38 51 52 31 26 34 33 35 31 28 30 27 31 27 26 29 28 33 47 42 38 28 26 27 28 30 32 34 39 31 25 22 29 25
78 75 74 76 68 64 49 29 27 23 27 51 36 43 40 37 34 31 32 30 32 37 32 30 26 26 25 24 25 27 30 44 46 38 49 35 23 24 26 25 29 36 36 32 25 40 20
79 78 75 77 72 66 59 29 32 26 26 58 35 39 49 34 34 38 37 34 33 36 34 30 27 24 21 20 17 19 28 32 41 49 39 32 30 29 26 20 26 27 29 35 42 32 24
85 82 78 76 76 69 66 38 32 25 29 50 35 31 43 33 43 42 44 35 35 33 35 36 38 32 26 28 24 30 22 23 18 39 33 31 30 27 25 22 23 26 22 23 31 27 27
83 82 81 77 76 73 69 58 35 29 33 40 57 56 39 38 36 35 25 30 32 37 34 33 35 38 40 36 34 28 26 24 22 24 28 27 26 27 23 40 40 44 35 26 19 22 23
81 80 80 79 77 75 73 73 39 39 42 59 56 47 34 21 32 27 35 37 37 38 37 35 38 39 42 40 42 43 41 42 40 32 30 28 25 29 36 41 50 38 41 39 30 24 24
80 79 79 81 80 77 75 76 69 40 42 71 63 53 34 27 24 25 32 36 37 39 46 42 39 38 40 46 48 45 48 56 55 50 46 32 31 41 50 42 32 27 43 41 39 36 33
75 77 77 76 80 80 77 75 78 55 43 50 79 63 50 34 21 24 31 34 34 35 40 48 50 47 47 47 48 47 38 33 45 64 53 47 41 44 48 55 47 38 39 35 38 42 42
70 72 74 75 76 78 79 79 78 79 50 49 81 64 62 44 24 31 32 28 33 37 37 48 54 57 51 49 53 46 41 39 40 48 65 60 54 56 51 53 42 38 38 41 52 46 47
88 81 76 73 72 74 75 78 79 80 73 54 73 62 71 44 33 42 41 41 50 47 30 49 51 57 59 58 48 42 46 39 48 39 50 50 53 56 49 54 66 40 45 48 47 48 48
100 98 94 86 77 73 72 72 76 82 84 61 76 66 78 74 44 60 51 51 51 49 43 43 35 44 40 45 43 44 52 50 46 47 52 58 40 40 41 42 44 40 44 49 44 48 50
Wind_Speed
12 12 12 12 13 13 12 12 11 9 8 8 8 7 7 8 8 11 15 17 17 12 7 3 2 6 5 5 5 5 11 8 10 10 12 9 10 13 14 15 14 13 14 5 2 3 3
11 12 12 13 14 14 13 13 12 11 9 7 8 8 7 6 7 8 11 13 15 13 8 6 2 7 5 7 5 8 9 3 13 13 10 8 6 6 10 10 13 13 5 8 4 6 4
11 12 13 13 14 14 14 14 13 12 10 8 8 8 7 6 7 8 9 10 11 12 9 6 2 3 5 4 4 7 3 3 9 7 7 5 4 7 3 6 11 5 10 7 7 7 5
11 12 13 14 15 16 17 16 14 11 10 7 7 8 7 7 7 8 8 8 9 7 5 2 0 3 4 3 5 4 2 3 4 5 3 3 4 7 7 4 6 9 13 11 13 9 4
12 13 14 14 14 17 18 18 15 13 9 7 6 6 5 6 7 7 7 6 5 3 0 1 1 2 2 4 3 3 2 3 5 3 3 2 4 5 4 9 10 13 13 17 10 12 6
12 13 14 15 15 16 17 17 15 12 8 5 4 4 5 6 5 6 6 5 4 1 2 4 6 5 2 2 1 1 0 5 3 4 4 5 5 7 8 11 13 17 17 20 12 10 9
10 13 14 15 16 17 17 17 15 12 8 4 3 4 4 5 5 4 4 4 4 4 4 4 5 3 2 3 2 2 2 3 2 3 7 8 6 11 14 14 12 9 19 15 14 4 9
9 11 13 15 16 17 17 18 17 13 6 4 3 4 4 4 4 3 3 4 4 3 1 0 4 2 1 3 2 4 3 2 5 6 6 5 8 13 2 7 9 9 16 13 4 3 8
10 12 14 16 16 17 18 19 18 13 4 3 6 5 2 2 1 1 2 1 1 2 4 3 1 2 2 3 3 4 4 1 4 5 9 7 2 1 4 9 12 8 13 15 6 8 5
11 12 14 16 16 17 18 19 19 15 3 3 6 4 2 4 1 1 1 2 1 2 3 4 2 3 2 3 1 1 2 4 5 5 4 6 3 4 8 11 12 12 10 9 7 11 10
10 12 13 14 15 16 18 19 20 16 4 1 5 4 3 3 1 1 3 4 3 3 2 3 2 1 1 3 4 4 1 3 3 4 3 0 2 5 8 1 1 3 2 5 6 11 3
10 12 14 15 16 17 19 21 21 17 6 1 3 3 2 3 1 2 1 2 4 2 2 2 1 1 3 3 2 3 2 2 2 2 1 2 1 2 6 1 0 2 4 5 3 3 4
9 11 13 14 16 17 19 20 22 19 5 2 1 3 2 1 3 1 2 2 3 2 2 3 2 1 2 3 4 3 3 6 2 0 3 3 2 2 2 4 4 1 9 3 4 3 4
9 10 12 13 15 17 19 21 23 21 6 3 3 2 3 1 0 0 3 4 3 3 2 1 3 5 4 4 2 4 4 5 5 4 4 3 3 2 2 4 2 6 4 4 4 6 8
8 11 13 14 16 18 19 20 22 22 6 3 3 1 1 2 0 1 5 1 1 2 3 6 3 5 3 4 2 4 6 3 1 5 3 3 4 3 2 2 2 4 6 3 4 0 4
7 10 13 15 15 16 17 19 21 21 8 3 1 2 0 1 1 2 3 2 1 0 1 2 5 1 4 1 3 4 6 1 2 2 2 2 3 0 3 2 3 3 6 5 3 3 5
5 8 11 13 15 16 17 16 18 20 8 1 3 3 0 1 2 4 2 2 1 2 2 3 3 5 4 4 5 3 2 2 1 2 3 5 4 3 3 6 4 4 4 5 3 3 4
5 7 10 12 14 16 16 17 18 18 13 2 3 2 2 2 2 0 2 3 4 1 2 2 4 3 4 4 4 3 3 3 1 1 2 1 4 3 0 4 1 3 4 5 4 5 1
6 7 9 11 13 15 16 15 14 17 16 3 3 2 0 1 3 3 1 1 1 2 2 1 2 2 3 3 4 3 1 2 0 3 3 1 3 2 2 2 3 6 10 6 2 2 5
8 8 9 10 12 13 15 15 15 15 13 2 2 2 2 2 1 3 2 0 1 2 2 2 3 2 4 4 3 3 3 0 1 1 4 4 3 7 4 3 1 4 9 12 10 5 9
9 10 9 10 11 12 13 14 14 14 13 1 1 2 1 2 2 2 2 2 2 1 3 3 4 3 2 4 4 3 2 2 3 2 2 2 5 4 9 8 5 7 8 13 16 17 8
11 11 11 11 10 11 12 12 12 11 9 1 3 2 3 2 2 4 2 3 3 2 3 3 4 2 4 4 2 6 4 2 2 3 3 3 3 2 5 2 7 12 13 14 17 17 19
14 13 12 11 11 11 12 12 12 9 5 2 0 0 3 3 3 3 2 3 4 1 5 4 3 3 6 7 4 6 5 5 4 4 6 3 3 2 4 1 6 11 17 18 11 8 12
16 14 14 13 11 11 11 11 10 9 6 2 1 2 3 4 4 5 2 3 6 8 5 2 5 4 2 1 2 4 6 6 7 7 4 4 5 3 4 3 5 2 3 4 13 9 12
18 18 16 16 14 11 12 12 11 8 6 3 3 3 3 4 4 8 10 7 6 5 6 7 6 1 0 2 3 5 4 3 4 3 7 6 6 4 4 6 13 14 3 3 6 3 8
22 21 20 18 18 17 14 12 13 10 8 4 5 4 3 4 6 8 3 5 7 7 3 4 2 1 2 2 2 3 4 4 3 3 1 5 6 5 3 4 5 3 4 1 2 5 7
21 22 24 23 21 21 19 16 14 12 11 6 5 8 3 4 6 4 6 6 3 3 4 1 4 4 2 3 4 4 6 1 4 4 5 4 6 12 11 7 7 6 7 3 3 1 6
26 26 26 25 25 24 23 21 18 15 13 9 5 9 4 4 7 6 4 6 3 4 8 4 3 4 4 5 4 4 4 3 3 1 4 7 6 5 6 5 10 8 4 4 4 5 7
29 28 29 29 29 28 27 25 24 21 16 13 6 9 11 7 5 3 11 14 9 3 3 5 4 2 4 5 4 3 4 3 5 7 2 4 6 2 6 3 2 7 2 3 2 6 4
Wind_Direction
22 22 18 13 9 5 358 350 336 315 299 284 290 302 319 333 351 4 9 11 14 26 19 25 174 163 169 219 268 356 327 287 200 211 222 224 220 210 214 205 196 220 207 211 160 186 211
20 18 16 12 7 3 358 350 342 328 306 295 293 290 295 314 326 338 354 2 10 14 20 47 116 147 269 248 16 350 341 185 185 202 213 222 240 228 255 229 200 197 218 202 166 189 199
23 17 14 11 8 1 354 351 346 336 317 304 308 290 286 297 310 322 335 345 358 13 19 39 47 338 261 354 355 345 353 153 192 217 215 219 290 230 306 218 215 271 187 194 182 185 180
22 16 10 9 8 2 356 355 349 339 326 307 300 293 287 286 296 314 325 339 349 11 28 34 270 312 292 337 312 314 56 165 184 231 307 247 258 281 254 41 204 210 222 193 180 173 170
16 12 7 7 7 1 358 357 355 345 335 315 284 287 291 291 291 296 312 331 7 48 66 162 302 237 85 324 295 347 325 207 180 218 234 258 246 243 202 214 185 214 200 208 157 195 155
15 8 4 3 1 0 359 358 356 347 335 324 299 285 294 292 294 292 301 310 283 270 272 244 262 246 155 69 7 48 66 163 208 180 195 211 223 220 210 205 200 200 228 202 186 189 213
22 7 3 359 358 358 358 1 358 350 332 335 310 291 283 292 289 287 312 273 215 172 221 2 5 23 109 112 157 154 143 176 179 221 205 202 215 214 206 213 228 284 213 221 195 143 217
18 9 2 359 357 357 358 359 359 354 354 22 4 318 277 271 287 288 294 297 43 8 36 195 296 288 281 316 175 149 177 235 206 220 209 180 233 228 309 234 246 280 220 212 108 107 224
9 8 0 2 0 1 1 0 358 356 34 45 6 341 286 243 254 307 282 101 335 327 276 121 43 349 36 248 7 144 213 141 243 222 213 213 171 114 254 213 218 237 230 215 221 172 232
5 2 7 0 11 4 6 2 359 355 13 26 13 7 109 134 109 311 245 280 283 289 275 63 134 116 201 282 146 359 268 304 202 228 223 267 65 230 235 223 209 219 235 298 162 187 216
5 0 12 12 12 13 6 6 2 358 354 25 18 24 130 128 83 284 329 319 288 239 357 12 76 58 196 283 122 156 257 237 248 168 236 199 247 221 230 166 222 5 291 203 205 217 228
1 7 6 8 10 10 9 5 4 3 2 180 12 44 99 316 271 220 249 309 279 238 34 33 318 198 210 190 192 138 201 195 347 243 283 336 125 330 7 35 158 111 174 151 172 243 236
0 7 7 6 8 8 7 5 4 1 7 164 34 62 12 341 352 229 153 219 274 350 160 4 348 312 292 156 178 218 194 194 241 84 253 181 138 103 288 200 122 248 190 153 196 203 229
357 2 360 5 5 5 6 5 2 1 359 164 163 77 37 66 28 182 253 216 33 15 356 46 296 290 254 178 195 219 207 206 210 257 301 200 214 200 359 346 58 204 250 279 203 201 200
356 354 359 8 6 4 4 7 5 1 8 153 149 146 128 320 142 289 266 35 60 47 339 322 267 270 223 200 272 221 233 191 155 206 282 243 173 145 45 352 328 136 222 3 305 285 227
349 351 1 2 5 5 4 3 6 5 21 135 291 245 146 289 171 252 271 12 28 308 297 259 296 289 304 185 266 206 180 89 183 240 228 331 249 115 111 213 163 252 334 238 210 244 224
339 348 358 2 360 0 2 1 3 8 7 48 274 263 55 202 158 227 358 24 205 175 287 271 313 293 293 309 275 275 340 119 213 173 259 290 264 116 195 200 217 185 232 237 290 289 298
327 343 352 358 358 359 1 360 357 6 9 357 296 275 355 172 248 351 18 6 354 293 205 278 297 285 295 321 284 286 310 2 65 278 246 69 312 249 229 83 25 275 275 276 257 221 268
306 333 341 350 356 359 360 359 1 1 3 327 291 332 311 228 346 20 120 137 277 290 294 286 279 294 325 289 291 286 301 99 5 283 327 95 222 245 177 188 198 230 208 235 232 326 254
285 307 326 336 350 356 357 357 353 354 358 92 290 290 157 194 328 322 321 149 296 189 266 275 305 279 291 272 244 307 295 138 145 250 23 327 280 259 295 12 73 203 208 214 211 218 241
279 292 305 321 338 350 353 354 355 352 354 63 309 77 24 320 120 330 298 324 298 255 216 233 206 246 309 302 291 275 298 237 197 161 184 258 278 309 292 284 239 258 227 205 211 226 232
273 291 291 304 320 338 344 348 352 352 355 266 307 291 172 280 289 273 178 209 263 230 216 191 246 229 214 239 260 298 323 261 329 178 226 188 270 307 275 242 251 261 250 236 228 238 246
264 273 286 286 302 318 332 341 344 351 358 306 67 73 283 130 209 248 225 213 238 226 204 258 260 272 250 282 294 279 256 267 289 284 217 232 253 246 264 260 281 266 244 230 227 231 242
259 264 275 280 282 300 313 326 334 343 3 322 281 266 250 269 246 244 249 239 237 228 274 247 221 244 78 81 290 260 252 252 243 220 263 256 237 276 289 298 250 66 76 344 231 232 229
256 260 263 273 277 283 296 309 319 320 332 320 265 267 254 256 250 265 254 249 265 235 238 249 230 3 89 267 284 287 207 231 212 247 234 224 249 260 250 242 292 278 192 186 194 233 212
258 259 263 261 268 276 279 288 299 305 300 300 259 226 275 281 235 246 220 229 258 236 222 208 142 158 221 249 243 262 274 341 195 196 239 228 251 245 169 256 263 66 131 143 178 245 166
259 261 263 262 262 265 271 278 282 291 287 277 273 227 214 249 260 191 211 238 196 269 278 127 160 169 229 218 243 245 253 345 254 231 174 177 210 227 238 253 279 112 139 170 212 80 144
259 259 260 258 257 258 262 267 267 271 274 260 265 238 237 251 257 212 225 209 178 221 250 122 168 210 185 216 237 239 246 198 274 264 203 196 195 202 212 234 256 142 126 221 91 113 141
255 258 260 261 260 259 259 258 261 260 258 251 254 250 225 242 298 265 251 250 235 259 259 192 281 184 220 224 210 275 224 210 246 261 201 241 229 269 222 237 95 188 299 85 143 152 157